Wind_Speed
34 34 34 33 32 33 33 32 30 29 27 24 23 22 21 20 19 17 16 14 14 14 14 14 14 13 13 13 12 13 13 13 13 13 13 14 13 13 13 13 14 14 14 15
35 35 35 35 34 33 33 32 31 30 29 26 24 23 23 21 20 20 18 16 16 15 15 15 14 14 14 13 13 13 13 14 14 14 14 14 14 14 14 14 15 15 15 15
36 36 37 38 34 33 33 32 31 30 29 28 26 25 23 21 20 20 20 19 18 16 16 15 15 15 15 14 14 14 14 14 14 14 14 14 14 14 15 15 16 16 16 16
38 37 39 35 33 32 31 31 31 30 29 28 27 26 24 24 22 21 21 20 19 17 17 17 16 16 16 16 16 15 15 15 15 15 15 15 15 16 16 17 17 17 17 17
38 39 38 36 33 32 31 31 31 31 30 30 28 28 27 26 24 23 22 20 20 18 18 18 18 18 17 17 17 16 16 17 17 16 16 16 16 16 17 17 17 17 17 18
38 39 39 36 34 32 32 32 31 31 31 31 31 30 28 26 25 25 24 22 21 20 20 20 20 19 19 19 18 17 17 18 18 17 17 17 17 18 18 17 18 17 18 19
36 37 37 36 36 34 34 33 32 32 31 31 31 31 29 29 28 27 26 24 23 22 22 22 20 20 21 20 19 18 18 19 18 18 18 18 18 19 19 19 19 19 20 20
36 36 37 36 37 38 36 33 32 32 33 33 32 31 30 30 29 29 27 26 24 22 22 22 22 22 21 21 19 19 19 20 20 19 19 19 19 19 19 20 20 21 21 21
36 36 34 35 36 37 37 35 33 32 32 34 34 32 31 30 30 28 27 26 24 23 23 24 24 24 23 22 21 20 20 21 21 20 20 20 20 20 20 20 21 22 22 23
37 37 35 34 34 35 35 36 34 33 32 32 33 32 32 31 31 29 28 27 25 24 24 24 25 24 23 23 23 21 22 23 22 21 20 20 20 20 21 22 22 23 24 24
37 36 35 35 35 34 34 35 35 34 33 32 31 32 32 32 32 31 30 28 27 26 25 25 24 23 22 22 21 21 21 22 21 21 20 20 20 21 22 23 23 24 24 23
35 35 35 36 37 36 35 35 35 35 35 31 30 30 31 31 31 31 31 30 29 28 27 25 25 24 24 23 22 22 22 21 21 21 20 21 21 22 23 23 23 23 23 23
34 35 35 36 37 35 35 35 35 35 34 32 30 29 29 29 29 29 30 30 28 27 26 26 26 25 24 24 22 22 23 23 22 22 22 22 22 23 23 23 23 23 23 23
33 34 36 37 36 35 34 33 33 33 32 31 30 28 27 27 28 28 28 29 28 27 26 26 25 24 24 24 23 23 23 23 23 23 23 22 22 23 23 23 23 23 23 23
34 32 32 34 34 35 34 33 32 30 29 27 26 26 26 25 25 25 26 27 26 25 25 25 24 23 22 23 23 23 24 24 24 23 23 23 24 24 24 23 23 23 23 24
31 32 30 30 31 32 32 32 31 29 28 26 26 26 25 25 24 23 23 24 25 24 24 24 23 22 22 23 24 24 24 25 25 25 24 24 23 23 23 23 23 24 25 25
26 27 27 27 28 29 30 30 30 31 29 27 27 27 25 24 24 23 23 23 23 23 23 24 23 23 23 24 24 24 24 24 24 24 23 23 23 23 23 24 24 25 26 26
24 24 25 25 26 26 26 28 28 28 28 27 26 25 25 24 24 23 22 22 22 22 23 23 22 23 23 24 24 24 24 24 24 25 24 24 24 23 23 24 25 26 27 28
25 23 23 23 22 22 22 22 23 23 25 26 25 25 25 24 24 23 22 22 23 23 23 23 23 24 24 24 24 25 25 25 25 25 25 25 25 24 23 24 25 26 27 27
23 23 22 22 22 21 20 20 20 21 22 23 23 23 24 24 23 23 23 23 23 23 23 23 24 24 24 24 24 24 25 25 25 25 26 26 25 24 24 24 25 25 25 25
21 21 21 21 22 21 21 20 21 21 21 20 21 21 22 21 21 22 23 23 23 24 23 23 24 24 24 24 24 24 25 25 25 25 25 25 24 24 24 24 24 24 24 25
20 21 21 22 22 22 22 22 21 21 21 20 20 20 21 22 21 22 24 24 24 24 23 24 24 23 23 24 23 23 24 24 24 23 23 23 23 23 23 24 24 24 24 25
22 22 23 23 24 23 23 22 22 21 21 21 21 21 21 21 21 21 22 22 22 22 23 23 23 23 23 23 23 23 22 22 22 22 22 23 22 22 23 24 24 24 24 25
24 24 24 24 24 23 22 22 22 21 21 21 21 22 22 22 22 22 21 21 21 21 22 22 22 22 22 22 22 22 21 21 21 22 22 22 22 22 23 24 24 24 24 25
23 23 23 23 23 23 23 23 23 22 22 22 22 22 21 21 21 21 22 22 22 23 23 23 23 22 21 21 21 22 22 21 22 21 21 21 21 22 23 23 23 24 25 25
22 22 23 23 22 22 22 22 22 22 22 22 22 22 22 21 22 22 22 22 22 22 23 23 23 23 23 22 22 22 22 22 22 21 21 21 21 21 22 23 23 23 23 23
22 22 23 23 23 22 22 23 22 22 22 22 22 22 22 21 22 21 21 21 21 22 22 21 21 21 22 22 22 22 21 21 21 20 20 20 21 22 23 22 22 22 23 24
Wind_Direction
223 224 224 226 226 226 228 231 233 234 237 239 246 253 259 263 266 268 275 275 274 274 272 274 279 283 290 296 302 306 309 311 314 315 316 318 320 320 321 323 324 323 322 322
222 222 224 226 227 229 230 231 233 235 235 235 242 250 257 262 266 266 271 271 271 272 272 275 278 281 284 287 291 298 303 307 309 311 312 313 314 315 316 318 319 321 321 321
221 221 225 226 227 230 230 229 232 234 235 235 239 246 252 257 261 265 268 269 270 271 270 271 273 277 280 282 285 291 297 302 302 305 309 310 311 312 314 316 317 318 318 318
220 219 223 224 225 228 230 231 231 232 232 233 238 244 248 254 258 262 266 265 265 268 268 267 267 270 274 278 283 288 293 298 300 301 304 306 306 308 311 312 313 314 315 314
223 221 224 221 222 225 229 232 233 232 232 232 235 239 244 251 257 260 266 265 263 265 265 266 265 266 269 273 278 283 287 291 295 298 300 303 305 305 308 311 312 312 314 314
224 222 222 221 220 224 229 231 232 233 232 232 235 239 244 248 253 257 260 263 263 265 264 266 269 267 269 273 275 279 282 285 288 292 295 299 302 304 306 310 312 311 314 313
225 225 223 221 218 221 227 231 232 233 233 234 237 242 246 249 253 257 258 259 262 263 264 266 266 267 269 271 273 274 277 281 285 289 290 293 298 303 306 309 310 311 312 313
225 225 224 223 221 223 229 233 234 235 236 237 240 242 245 248 252 256 259 259 260 263 262 262 264 266 268 271 273 273 276 280 282 285 286 290 296 300 303 306 308 309 312 312
224 224 225 225 226 228 229 231 234 237 238 239 240 242 246 247 248 251 255 257 258 262 263 263 263 266 269 270 272 275 276 279 281 284 286 289 292 296 300 303 306 309 310 311
223 223 223 224 227 229 229 231 233 236 238 238 236 239 243 247 249 250 254 258 259 260 261 261 263 265 268 269 270 274 277 278 280 282 283 286 289 292 297 301 304 307 308 308
224 224 224 225 228 230 231 231 233 235 237 236 237 241 244 246 247 249 252 254 256 257 258 260 263 266 268 272 276 277 279 281 281 282 282 287 291 293 296 299 302 303 305 306
225 224 223 224 227 228 231 232 233 235 237 236 236 240 243 246 247 249 251 252 254 255 256 260 264 266 268 270 272 274 277 279 280 281 283 287 291 293 296 298 300 301 304 305
225 226 225 224 225 229 232 231 232 234 236 237 237 239 243 245 247 248 249 251 253 254 255 259 262 264 266 269 270 271 274 277 278 279 282 286 290 292 295 297 298 300 302 304
225 225 225 226 225 229 232 231 233 236 236 238 238 238 240 243 245 247 249 251 253 253 255 257 260 262 265 267 269 270 273 275 279 281 282 285 287 290 292 294 296 299 300 301
227 228 228 227 227 230 232 233 232 232 234 237 239 240 240 241 243 247 249 250 252 255 255 256 257 259 262 265 269 272 273 275 278 279 281 284 286 288 290 292 295 297 300 301
230 233 232 228 228 229 228 227 229 230 230 233 238 240 239 240 242 244 247 251 252 253 253 254 256 258 261 265 269 271 273 274 277 279 281 284 286 287 289 291 293 296 298 300
228 230 229 232 233 229 227 229 231 230 231 234 236 238 238 239 240 243 246 247 250 252 253 254 257 259 262 265 267 269 271 274 277 280 283 287 287 287 288 290 292 295 297 299
230 231 235 235 230 224 226 230 231 231 231 234 237 240 240 239 239 242 243 245 249 252 254 255 258 260 262 265 267 270 272 273 276 280 283 286 288 288 288 289 291 294 297 299
229 230 233 231 228 227 230 232 232 233 231 236 240 242 241 242 242 245 249 249 250 253 255 257 260 262 263 264 266 268 271 274 277 281 283 285 289 290 290 291 292 295 297 299
231 229 229 227 227 228 230 234 237 237 233 233 236 239 241 242 243 245 247 248 250 253 254 257 261 261 262 264 268 270 272 275 278 280 282 283 287 289 289 290 292 295 297 299
234 228 228 227 228 232 236 237 237 236 233 236 237 240 243 245 246 246 246 250 252 253 255 258 260 262 264 266 269 271 274 277 279 280 282 284 287 288 289 290 293 296 299 300
231 230 232 230 232 236 238 240 240 240 238 236 238 243 248 250 252 251 249 251 254 256 258 260 261 262 264 267 270 273 277 279 280 281 283 285 287 288 288 291 294 297 299 300
236 235 233 234 235 237 239 240 240 239 240 240 241 244 248 250 250 252 252 253 256 258 260 260 262 263 265 269 272 275 279 280 281 283 284 285 286 287 290 293 295 296 297 299
236 235 234 234 236 237 237 237 238 240 241 243 244 247 251 253 253 253 253 255 257 260 260 262 263 264 265 268 271 275 278 280 282 283 284 285 286 288 291 294 295 297 298 299
233 234 234 234 235 236 237 237 239 241 243 244 246 248 251 253 254 254 256 259 260 260 260 261 262 264 267 271 275 279 280 280 281 282 283 284 287 290 293 295 297 299 299 300
233 235 236 235 236 236 235 236 237 240 243 244 246 249 252 254 256 257 258 259 259 260 262 262 261 263 267 271 275 277 278 278 279 280 283 286 289 292 294 295 297 299 300 300
235 235 234 233 234 235 235 236 238 240 242 245 247 249 251 254 255 256 257 257 259 261 261 261 262 264 267 269 271 273 275 278 280 280 281 284 287 291 292 294 297 299 300 302
Height
5862 5866 5870 5874 5878 5881 5884 5888 5891 5895 5898 5901 5903 5904 5905 5908 5909 5910 5910 5911 5912 5912 5912 5912 5912 5912 5911 5910 5909 5908 5906 5904 5903 5900 5899 5897 5895 5893 5890 5888 5886 5884 5882 5880
5855 5860 5863 5867 5871 5874 5878 5881 5885 5888 5892 5896 5897 5899 5901 5903 5903 5904 5905 5907 5907 5908 5908 5908 5908 5908 5908 5907 5906 5905 5903 5901 5900 5898 5896 5894 5892 5890 5888 5886 5884 5882 5879 5877
5848 5853 5856 5860 5865 5868 5871 5875 5879 5882 5887 5890 5892 5893 5896 5898 5899 5899 5901 5902 5903 5903 5903 5904 5904 5904 5904 5903 5902 5901 5900 5898 5897 5895 5893 5891 5890 5887 5886 5884 5881 5879 5876 5874
5841 5846 5848 5856 5860 5862 5865 5869 5872 5876 5880 5883 5886 5888 5891 5892 5894 5894 5896 5897 5898 5898 5898 5899 5899 5899 5899 5898 5897 5896 5896 5894 5893 5891 5890 5888 5886 5884 5882 5880 5878 5875 5873 5871
5833 5837 5842 5849 5853 5856 5859 5862 5866 5870 5873 5877 5879 5882 5884 5886 5888 5889 5891 5891 5893 5893 5894 5894 5894 5893 5894 5893 5892 5891 5891 5890 5889 5888 5886 5884 5883 5881 5878 5876 5874 5872 5869 5867
5826 5830 5835 5844 5848 5850 5854 5856 5860 5863 5867 5870 5873 5875 5879 5881 5882 5884 5886 5886 5887 5888 5889 5889 5888 5888 5889 5888 5887 5887 5887 5886 5885 5884 5882 5881 5879 5877 5875 5873 5870 5868 5866 5863
5818 5823 5828 5836 5840 5843 5847 5851 5855 5857 5860 5863 5866 5870 5874 5875 5877 5878 5879 5880 5882 5882 5883 5883 5883 5883 5883 5883 5882 5881 5882 5881 5880 5879 5878 5876 5875 5873 5871 5869 5866 5864 5862 5859
5812 5816 5824 5829 5833 5837 5840 5845 5848 5851 5854 5857 5860 5863 5865 5868 5870 5872 5873 5874 5875 5876 5877 5877 5878 5878 5878 5878 5877 5877 5876 5876 5875 5874 5873 5871 5870 5869 5867 5865 5862 5860 5858 5855
5806 5812 5817 5820 5825 5829 5833 5837 5840 5844 5847 5850 5853 5856 5858 5860 5863 5865 5866 5868 5869 5870 5871 5871 5872 5872 5872 5872 5872 5871 5870 5870 5870 5869 5868 5866 5865 5864 5862 5860 5858 5855 5853 5850
5798 5803 5808 5813 5817 5821 5825 5829 5833 5837 5840 5842 5845 5848 5851 5853 5855 5857 5860 5861 5862 5864 5864 5865 5865 5865 5866 5866 5866 5865 5865 5865 5864 5864 5863 5861 5860 5859 5857 5855 5853 5850 5848 5845
5791 5797 5801 5806 5810 5814 5818 5821 5825 5828 5832 5834 5837 5840 5843 5845 5848 5850 5852 5854 5855 5857 5858 5858 5859 5859 5859 5859 5859 5860 5860 5859 5858 5858 5857 5856 5855 5854 5852 5850 5848 5845 5843 5840
5784 5790 5794 5799 5802 5806 5810 5813 5816 5820 5823 5826 5830 5833 5835 5838 5841 5843 5844 5846 5848 5849 5851 5852 5852 5853 5853 5854 5854 5855 5854 5854 5853 5853 5852 5851 5849 5848 5846 5844 5842 5839 5837 5834
5778 5783 5787 5791 5794 5798 5801 5804 5808 5811 5815 5819 5822 5825 5828 5830 5833 5835 5837 5839 5840 5842 5843 5845 5845 5846 5847 5848 5848 5848 5848 5848 5848 5847 5846 5845 5843 5842 5840 5838 5836 5834 5831 5829
5771 5774 5778 5782 5785 5790 5793 5797 5799 5803 5807 5811 5815 5818 5821 5823 5825 5828 5829 5831 5833 5834 5836 5838 5839 5840 5841 5842 5842 5842 5842 5842 5841 5840 5839 5838 5837 5835 5834 5832 5830 5828 5825 5823
5764 5767 5770 5774 5778 5782 5786 5789 5793 5797 5801 5804 5808 5811 5814 5817 5819 5821 5823 5824 5826 5828 5830 5831 5832 5833 5834 5835 5835 5835 5835 5835 5835 5834 5833 5832 5830 5828 5827 5825 5823 5821 5819 5817
5757 5761 5764 5767 5770 5775 5779 5783 5787 5790 5794 5798 5802 5805 5807 5810 5812 5814 5816 5818 5820 5822 5823 5825 5826 5827 5828 5829 5829 5829 5828 5828 5828 5827 5826 5825 5823 5822 5820 5819 5817 5815 5813 5810
5751 5754 5757 5761 5764 5768 5772 5776 5780 5784 5787 5791 5795 5798 5801 5804 5806 5808 5809 5811 5813 5815 5817 5818 5819 5820 5821 5822 5822 5823 5823 5822 5821 5820 5819 5818 5816 5815 5814 5812 5810 5808 5806 5803
5746 5750 5753 5756 5758 5761 5764 5769 5773 5777 5782 5785 5789 5792 5795 5798 5800 5802 5804 5806 5808 5810 5811 5812 5813 5814 5815 5815 5816 5816 5816 5815 5814 5814 5813 5811 5810 5808 5807 5805 5803 5801 5798 5796
5742 5746 5748 5751 5754 5756 5760 5764 5767 5770 5775 5779 5783 5786 5789 5791 5793 5796 5798 5800 5802 5803 5805 5806 5806 5807 5808 5808 5809 5809 5808 5808 5807 5806 5805 5804 5803 5801 5799 5798 5796 5794 5791 5789
5737 5740 5743 5746 5750 5753 5757 5761 5764 5767 5771 5774 5777 5779 5782 5784 5787 5789 5792 5794 5795 5797 5798 5799 5800 5800 5801 5801 5801 5801 5801 5801 5800 5799 5798 5797 5795 5794 5792 5790 5788 5786 5784 5781
5732 5735 5739 5742 5745 5749 5753 5756 5759 5762 5766 5768 5771 5774 5776 5778 5781 5783 5785 5787 5788 5790 5791 5792 5793 5793 5794 5794 5794 5794 5794 5793 5792 5791 5790 5789 5788 5786 5785 5783 5781 5779 5776 5774
5728 5732 5735 5738 5741 5744 5748 5751 5754 5757 5760 5763 5766 5769 5771 5773 5775 5777 5778 5780 5781 5783 5784 5785 5786 5786 5787 5787 5787 5787 5786 5785 5785 5784 5783 5782 5781 5779 5778 5776 5774 5772 5769 5767
5723 5727 5730 5734 5737 5739 5742 5746 5749 5752 5755 5758 5761 5763 5765 5767 5769 5771 5772 5773 5774 5776 5777 5778 5779 5779 5779 5780 5780 5780 5779 5778 5778 5777 5776 5775 5774 5773 5771 5769 5767 5765 5762 5760
5718 5721 5725 5728 5731 5734 5737 5740 5743 5746 5748 5751 5754 5756 5759 5761 5762 5764 5765 5766 5768 5769 5770 5771 5772 5772 5772 5773 5772 5772 5772 5771 5771 5770 5769 5768 5767 5766 5764 5762 5760 5758 5755 5753
5713 5716 5718 5722 5725 5728 5731 5734 5737 5740 5742 5745 5748 5750 5752 5754 5756 5757 5758 5760 5761 5762 5763 5764 5764 5765 5765 5765 5765 5765 5765 5764 5764 5763 5762 5761 5760 5759 5757 5755 5753 5751 5748 5746
5707 5710 5713 5716 5719 5722 5725 5728 5731 5733 5736 5738 5741 5743 5745 5747 5749 5750 5751 5752 5753 5754 5755 5756 5757 5757 5758 5758 5758 5758 5758 5757 5757 5756 5755 5754 5753 5751 5750 5748 5746 5744 5741 5739
5702 5704 5707 5710 5713 5716 5719 5722 5725 5727 5730 5732 5734 5736 5738 5740 5742 5743 5744 5745 5746 5747 5748 5749 5750 5750 5750 5751 5751 5751 5751 5750 5750 5749 5748 5747 5746 5745 5743 5741 5739 5737 5735 5732